sat.trackr.live / text

‹ back to catalog

SERVIS 2

NORAD 36588 · 2010-023A

PAYLOAD ACTIVE UNKNOWN

§ Identity

Operator
Country
JPN
Launch date
2010-06-02
Launch site
PLMSC
Launch vehicle
Mass (kg)
RCS (m²)
2.66

External: N2YO · Heavens-Above · Gunter

§ Orbital elements

Epoch: 2026-09-09T23:48:26.874144Z

Period
109.42 min
Inclination
100.4288°
Eccentricity
0.0017962
Mean motion
13.16057866 rev/d
Perigee alt
1,186.2 km
Apogee alt
1,213.4 km
Semi-major
7,578.0 km
B*
2.9845e-5
RAAN
79.4688°
Arg perigee
81.7193°
Mean anomaly
38.9672°
Rev number
78,192

§ Raw data

SERVIS 21 36588U 10023A   26252.99197771 -.00000033  00000+0  29845-4 0  99912 36588 100.4288  79.4688 0017962  81.7193  38.9672 13.16057866781926

JSON: /api/v1/satellites/36588 · /tle

For live sub-satellite position, see the globe view (requires WebGL).

§ Visibility from observer

Set your observer location to see the next 7 days of passes ≥ 10°. The values pass through the URL so the page stays shareable.

No JS? Fill the form by hand. The geolocation button needs JavaScript.